• In United Kingdom
  • List of Countries
  • For 7 days
  • Water Temperature
  • Satellite Maps
  • Weather Map
  • Weather Widgets
  • user-avatar
    Login

    Hourly Weather Dolina

    Today, 22 August, Wednesday

    Time Temperature Precipitation Wind Pressure Humidity
    00:00 +20°C° 0 mm 1 mps 726 mmHg 95%
    01:00 +20°C° 0 mm 1 mps 726 mmHg 94%
    02:00 +20°C° 0 mm 1 mps 727 mmHg 95%
    03:00 +17°C° 0 mm 0 mps 727 mmHg 96%
    04:00 +19°C° 0 mm 1 mps 726 mmHg 98%
    05:00 +18°C° 0 mm 1 mps 726 mmHg 100%
    06:00 +16°C° 0 mm 0 mps 726 mmHg 100%
    07:00 +18°C° 0 mm 1 mps 727 mmHg 100%
    08:00 +16°C° 0 mm 0 mps 727 mmHg 100%
    09:00 +19°C° 0 mm 1 mps 727 mmHg 100%
    10:00 +19°C° 0 mm 2 mps 728 mmHg 96%
    11:00 +21°C° 0 mm 3 mps 728 mmHg 90%
    12:00 +20°C° 0 mm 3 mps 728 mmHg 87%
    13:00 +20°C° 0 mm 3 mps 728 mmHg 86%
    14:00 +21°C° 0 mm 3 mps 727 mmHg 85%
    15:00 +21°C° 0 mm 3 mps 727 mmHg 84%
    16:00 +22°C° 0 mm 3 mps 727 mmHg 85%
    17:00 +21°C° 0 mm 4 mps 727 mmHg 88%
    18:00 +20°C° 0.4 mm 3 mps 727 mmHg 93%
    19:00 +20°C° 0.7 mm 2 mps 727 mmHg 96%
    20:00 +19°C° 0.1 mm 3 mps 727 mmHg 97%
    21:00 +19°C° 0 mm 3 mps 727 mmHg 100%
    22:00 +18°C° 0 mm 2 mps 727 mmHg 100%
    23:00 +18°C° 0 mm 2 mps 727 mmHg 100%

    Tomorrow, 23 August, Thursday

    Time Temperature Precipitation Wind Pressure Humidity
    00:00 +18°C° 0 mm 3 mps 727 mmHg 100%
    01:00 +18°C° 0 mm 3 mps 726 mmHg 100%
    02:00 +17°C° 0 mm 3 mps 726 mmHg 100%
    03:00 +17°C° 0 mm 3 mps 726 mmHg 100%
    04:00 +17°C° 0 mm 3 mps 726 mmHg 100%
    05:00 +17°C° 0 mm 3 mps 725 mmHg 100%
    06:00 +17°C° 0 mm 2 mps 725 mmHg 100%
    07:00 +17°C° 0 mm 2 mps 725 mmHg 100%
    08:00 +18°C° 0 mm 3 mps 725 mmHg 100%
    09:00 +19°C° 0 mm 3 mps 725 mmHg 99%
    10:00 +20°C° 0 mm 3 mps 726 mmHg 98%
    11:00 +21°C° 0 mm 3 mps 725 mmHg 97%
    12:00 +22°C° 0 mm 3 mps 725 mmHg 98%
    13:00 +23°C° 0 mm 4 mps 725 mmHg 95%
    14:00 +23°C° 0 mm 4 mps 725 mmHg 94%
    15:00 +25°C° 0 mm 5 mps 724 mmHg 95%
    16:00 +25°C° 0 mm 5 mps 724 mmHg 94%
    17:00 +23°C° 0 mm 5 mps 724 mmHg 92%
    18:00 +23°C° 0 mm 5 mps 723 mmHg 94%
    19:00 +23°C° 0 mm 5 mps 723 mmHg 97%
    20:00 +22°C° 0 mm 3 mps 723 mmHg 99%
    21:00 +21°C° 0 mm 2 mps 723 mmHg 99%
    22:00 +21°C° 0 mm 2 mps 723 mmHg 99%
    23:00 +20°C° 0 mm 2 mps 723 mmHg 100%

    Day after tomorrow, 24 August, Friday

    Time Temperature Precipitation Wind Pressure Humidity
    00:00 +20°C° 0 mm 2 mps 723 mmHg 99%
    01:00 +20°C° 0 mm 1 mps 722 mmHg 98%
    02:00 +19°C° 0 mm 2 mps 722 mmHg 97%
    03:00 +18°C° 0 mm 2 mps 722 mmHg 99%
    04:00 +19°C° 0 mm 1 mps 722 mmHg 99%
    05:00 +19°C° 0 mm 1 mps 722 mmHg 100%
    06:00 +18°C° 0 mm 1 mps 721 mmHg 100%
    07:00 +19°C° 0 mm 1 mps 722 mmHg 100%
    08:00 +20°C° 0 mm 1 mps 722 mmHg 99%
    09:00 +21°C° 0 mm 2 mps 722 mmHg 95%
    10:00 +24°C° 0 mm 2 mps 722 mmHg 93%
    11:00 +25°C° 0 mm 2 mps 722 mmHg 90%
    12:00 +25°C° 0 mm 2 mps 722 mmHg 86%
    13:00 +25°C° 3.2 mm 2 mps 721 mmHg 93%
    14:00 +25°C° 0.3 mm 3 mps 721 mmHg 95%
    15:00 +25°C° 0.3 mm 5 mps 720 mmHg 95%
    16:00 +25°C° 0.4 mm 4 mps 720 mmHg 93%
    17:00 +26°C° 0 mm 5 mps 720 mmHg 89%
    18:00 +24°C° 0.1 mm 1 mps 719 mmHg 78%
    19:00 +24°C° 0 mm 1 mps 719 mmHg 88%
    20:00 +23°C° 0 mm 2 mps 719 mmHg 95%
    21:00 +21°C° 0 mm 2 mps 719 mmHg 98%
    22:00 +21°C° 0 mm 2 mps 719 mmHg 97%
    23:00 +21°C° 0 mm 2 mps 719 mmHg 93%

    25 August, Saturday

    Time Temperature Precipitation Wind Pressure Humidity
    00:00 +20°C° 0 mm 2 mps 718 mmHg 94%
    01:00 +19°C° 0 mm 2 mps 718 mmHg 96%
    02:00 +20°C° 0 mm 1 mps 718 mmHg 99%
    03:00 +19°C° 0 mm 1 mps 717 mmHg 99%
    04:00 +19°C° 0 mm 1 mps 717 mmHg 98%
    05:00 +19°C° 0 mm 1 mps 717 mmHg 96%
    06:00 +18°C° 0 mm 2 mps 717 mmHg 97%
    07:00 +18°C° 0 mm 2 mps 717 mmHg 98%
    08:00 +20°C° 0 mm 2 mps 717 mmHg 97%
    09:00 +21°C° 0 mm 2 mps 717 mmHg 94%
    10:00 +24°C° 0 mm 2 mps 718 mmHg 90%
    11:00 +25°C° 0 mm 1 mps 718 mmHg 86%
    12:00 +26°C° 0 mm 1 mps 718 mmHg 84%
    13:00 +26°C° 0 mm 1 mps 717 mmHg 81%
    14:00 +27°C° 0 mm 1 mps 717 mmHg 82%

    26 August, Sunday

    Time Temperature Precipitation Wind Pressure Humidity

    27 August, Monday

    Time Temperature Precipitation Wind Pressure Humidity
    Show more